Location: Newark
(36.6294°S, 72.9458°W)
Time: 13:22:54
(UTC+00:00)

LightSail 2 - Pass Details

Date: 22 January 2020
Orbit: 699 x 722 km, 24.0° (Epoch: 21 February)

Event Time Altitude Azimuth Distance (km) Brightness Sun altitude
Exits shadow 09:11:07 - 337° (NNW) 2,586 7.5 -8.8°
Reaches altitude 10° 09:13:18 10° 357° (N) 2,194 7.3 -8.4°
Maximum altitude 09:14:59 12° 16° (NNE) 2,089 7.4 -8.2°
Drops below altitude 10° 09:16:41 10° 36° (NE) 2,192 7.7 -7.9°
Sets 09:20:52 0° 68° (ENE) 3,107 9.0 -7.2°
